Flag for Romania Weather past 2 weeks in Sibiu, Romania

Now
91 °F

Passing clouds.


Feels Like: 89 °F
Forecast: 64 / 91 °F
Wind: 7 mph from South

Location: Sibiu Airport

Current Time: Aug 31, 2015 at 4:57:54 PM

Latest Report: Aug 31, 2015 at 4:30 PM


Visibility: N/A

Pressure: 30.12 "Hg

Humidity: 30%

Dew point: 55 °F

Location of SibiuLocation

Historic Weather in Sibiu — Graph

°F

Sibiu temperature yesterday

Maximum temperature yesterday: 91 °F (at 4:30 PM)
Minimum temperature yesterday: 59 °F (at 5:30 AM)
Average temperature yesterday: 76 °F

Past Weeks' High & Low Weather Summary

 TemperatureHumidityPressure
High91 °F (Aug 30, 4:30 PM)100% (Aug 17, 8:00 AM)30.30 "Hg (Aug 17, 8:00 AM)
Low50 °F (Aug 24, 5:30 AM)26% (Aug 29, 4:30 PM)29.80 "Hg (Aug 16, 5:00 PM)
Average68 °F72%30.10 "Hg
* Reported Aug 16 3:00 PM — Aug 31 3:30 PM, Sibiu, Weather by CustomWeather, © 2015

Note: Actual official high and low records may vary slightly from our data, if they occured in-between our weather recording intervals... More about our weather records

Advertising

Sibiu weather history for previous 24 hours

 ConditionsComfort  
Time TempWeatherWind HumidityBarometerVisibility
3:30 PM
Mon, Aug 31
91 °FPassing clouds.6 mph32%30.12 "HgN/A
3:00 PM91 °FPassing clouds.6 mph32%30.15 "HgN/A
2:30 PM91 °FPassing clouds.7 mph32%30.15 "HgN/A
2:00 PM90 °FSunny.7 mph36%30.15 "Hg10 mi
1:30 PM90 °FSunny.5 mph41%30.15 "Hg10 mi
1:00 PM86 °FSunny.3 mph43%30.18 "Hg10 mi
12:30 PM86 °FSunny.3 mph43%30.18 "Hg10 mi
12:00 PM82 °FPassing clouds.5 mph48%30.18 "HgN/A
11:30 AM81 °FPassing clouds.5 mph54%30.18 "HgN/A
11:00 AM79 °FSunny.2 mph58%30.18 "Hg10 mi
10:30 AM77 °FSunny.3 mph61%30.18 "Hg10 mi
10:00 AM73 °FPassing clouds.3 mph65%30.21 "HgN/A
9:30 AM72 °FSunny.6 mph73%30.21 "Hg10 mi
9:00 AM68 °FSunny.6 mph78%30.21 "Hg10 mi
8:30 AM66 °FSunny.5 mph88%30.21 "Hg10 mi
8:00 AM64 °FSunny.2 mph88%30.21 "Hg10 mi
7:30 AM63 °FClear.3 mph94%30.21 "Hg4 mi
7:00 AM61 °FClear.3 mph94%30.21 "Hg4 mi
6:30 AM63 °FClear.2 mph94%30.18 "Hg10 mi
6:00 AM63 °FClear.2 mph94%30.18 "Hg10 mi
5:30 AM63 °FClear.2 mph88%30.21 "Hg10 mi
5:00 AM61 °FClear.2 mph94%30.21 "Hg10 mi
4:00 AM64 °FClear.2 mph88%30.21 "Hg10 mi
3:00 AM64 °FClear.2 mph88%30.21 "Hg10 mi
2:00 AM66 °FClear.No wind83%30.21 "Hg10 mi
1:00 AM68 °FClear.1 mph83%30.21 "Hg10 mi
12:00 AM68 °FClear.2 mph83%30.21 "Hg10 mi
11:00 PM
Sun, Aug 30
70 °FClear.2 mph78%30.21 "Hg10 mi
10:00 PM70 °FClear.2 mph83%30.21 "Hg10 mi
9:00 PM73 °FSunny.5 mph69%30.21 "Hg10 mi
8:30 PM75 °FSunny.6 mph69%30.21 "Hg10 mi
8:00 PM79 °FSunny.2 mph61%30.21 "Hg10 mi
7:30 PM82 °FSunny.3 mph55%30.21 "Hg10 mi
7:00 PM86 °FSunny.5 mph46%30.21 "Hg10 mi
6:30 PM88 °FWarm.6 mph40%30.21 "HgN/A
6:00 PM90 °FSunny.3 mph33%30.21 "Hg10 mi
5:30 PM91 °FSunny.3 mph30%30.24 "Hg10 mi
5:00 PM91 °FSunny.2 mph30%30.24 "Hg10 mi
4:30 PM91 °FSunny.2 mph30%30.24 "Hg10 mi
4:00 PM90 °FPassing clouds.6 mph31%30.24 "HgN/A
Weather by CustomWeather, © 2015

See weather overviewHow to use our weather pages